Find Local Weather

World > North America > United States > Wisconsin

Appleton, Wisconsin Regional Weather

Lat: 44.26N, Lon: 88.4W
Wx Zone: WIZ038
Feedback
Expires:201805231700;;411464
ASUS43 KMKX 231621
RWRWI 

WISCONSIN REGIONAL WEATHER ROUNDUP
NATIONAL WEATHER SERVICE MILWAUKEE/SULLIVAN WI
1100 AM CDT WED MAY 23 2018

NOTE: "FAIR" INDICATES FEW OR NO CLOUDS BELOW 12,000 FEET WITH NO
SIGNIFICANT WEATHER AND/OR OBSTRUCTIONS TO VISIBILITY.


WIZ011>013-019>022-031-037>040-048>050-231700-
NORTHEAST WISCONSIN
  
CITY           SKY/WX    TMP DP  RH WIND       PRES   REMARKS
ANTIGO         FAIR      73  57  58 CALM      30.18F                  
SHAWANO        FAIR      77  54  44 CALM      30.16F                  
OCONTO         FAIR      73  57  57 SE6       30.16S                  
STURGEON BAY   NOT AVBL                                               
GREEN BAY      FAIR      77  61  57 VRB6      30.17S                  
MANITOWOC      FAIR      75  60  59 SW5       30.18S                  
APPLETON       MOSUNNY   72  55  56 W6        30.18S                  
CLINTONVILLE   FAIR      74  57  54 CALM      30.16F                  
OSHKOSH        FAIR      72  58  61 W7        30.18S                  
$$
 

SKY/WX - Weather  TMP - Temperature  DP - Dewpoint  RH - Relative Humidity
WIND - Wind Direction/Speed PRES - Barometric Pressure